User: anonymous   Login
Location: *
(51.0333°S, 178.4667°E)
Time: 10:55:41
(UTC+00:00)
Language:

STARLINK-64 - Orbit

View from above orbital plane
View from above orbital plane
View from above satellite
View from above satellite

Ground track
Ground track

The orbit data is extracted from the following two-line orbital elements,

1 44275U 19029AS  20021.25001157  .00752794  00000-0  28457-1 0  9990
2 44275  52.9923 161.8551 0001546  60.0834   5.6916 15.24034677 36654
Epoch (UTC): 21 January 2020 06:00:01
Eccentricity: 0.0001546
inclination: 52.9923°
perigee height: 492 km
apogee height: 495 km
right ascension of ascending node: 161.8551°
argument of perigee: 60.0834°
revolutions per day: 15.24034677
mean anomaly at epoch: 5.6916°
orbit number at epoch: 3665

The dashed part of the orbit path shows where the satellite is in the earth's shadow,  

DLR